TimeCDT,TemperatureF,Dew PointF,Humidity,Sea Level PressureIn,VisibilityMPH,Wind Direction,Wind SpeedMPH,Gust SpeedMPH,PrecipitationIn,Events,Conditions,WindDirDegrees,DateUTC
12:54 AM,61.0,57.0,87,29.83,10.0,NNE,9.2,-,N/A,,Clear,30,2013-09-25 05:54:00
1:54 AM,60.1,55.9,86,29.83,10.0,NE,9.2,-,N/A,,Clear,40,2013-09-25 06:54:00
2:54 AM,60.1,55.0,83,29.82,10.0,NE,5.8,-,N/A,,Clear,50,2013-09-25 07:54:00
3:54 AM,60.1,55.0,83,29.81,10.0,ENE,9.2,-,N/A,,Clear,70,2013-09-25 08:54:00
4:54 AM,57.9,55.0,90,29.83,9.0,Calm,Calm,-,N/A,,Clear,0,2013-09-25 09:54:00
5:54 AM,57.0,54.0,89,29.84,9.0,North,5.8,-,N/A,,Clear,10,2013-09-25 10:54:00
6:54 AM,55.9,53.1,90,29.87,8.0,ENE,4.6,-,N/A,,Clear,60,2013-09-25 11:54:00
7:54 AM,59.0,54.0,83,29.88,10.0,Calm,Calm,-,N/A,,Mostly Cloudy,0,2013-09-25 12:54:00
8:54 AM,62.1,54.0,75,29.89,10.0,Variable,4.6,-,N/A,,Scattered Clouds,0,2013-09-25 13:54:00
9:54 AM,66.0,55.0,68,29.90,10.0,Variable,3.5,-,N/A,,Clear,0,2013-09-25 14:54:00
10:54 AM,71.1,57.0,61,29.90,10.0,NE,5.8,-,N/A,,Clear,50,2013-09-25 15:54:00
11:54 AM,73.9,59.0,59,29.89,10.0,ENE,5.8,-,N/A,,Clear,70,2013-09-25 16:54:00
12:54 PM,78.1,60.1,54,29.88,10.0,ENE,8.1,-,N/A,,Clear,60,2013-09-25 17:54:00
1:54 PM,80.1,60.1,50,29.86,10.0,ENE,5.8,-,N/A,,Scattered Clouds,70,2013-09-25 18:54:00
2:54 PM,80.1,59.0,48,29.85,10.0,SE,9.2,-,N/A,,Partly Cloudy,140,2013-09-25 19:54:00
3:54 PM,80.1,60.1,50,29.85,10.0,East,8.1,-,N/A,,Scattered Clouds,90,2013-09-25 20:54:00
4:54 PM,80.1,59.0,48,29.85,10.0,ESE,10.4,-,N/A,,Mostly Cloudy,110,2013-09-25 21:54:00
5:54 PM,79.0,59.0,50,29.85,10.0,ESE,5.8,-,N/A,,Clear,110,2013-09-25 22:54:00
6:54 PM,73.9,60.1,62,29.86,10.0,East,3.5,-,N/A,,Clear,90,2013-09-25 23:54:00
7:54 PM,71.1,60.1,68,29.86,10.0,Calm,Calm,-,N/A,,Clear,0,2013-09-26 00:54:00
8:54 PM,70.0,60.1,71,29.87,10.0,East,3.5,-,N/A,,Clear,90,2013-09-26 01:54:00
9:54 PM,68.0,59.0,73,29.88,10.0,East,5.8,-,N/A,,Clear,80,2013-09-26 02:54:00
10:54 PM,66.9,57.0,70,29.88,10.0,North,-9999.0,-,N/A,,Clear,0,2013-09-26 03:54:00
11:54 PM,66.0,55.9,70,29.88,10.0,East,5.8,-,N/A,,Clear,90,2013-09-26 04:54:00